Hourly Weather Cayo Levisa

Today, 15 May, Saturday

Time Temperature Precipitation Wind Pressure Humidity
00:00 +30°C° 0 mm 6 mps 761 mmHg 68%
01:00 +30°C° 0 mm 6 mps 761 mmHg 69%
02:00 +30°C° 0 mm 6 mps 761 mmHg 70%
03:00 +30°C° 0 mm 6 mps 761 mmHg 72%
04:00 +29°C° 0 mm 6 mps 760 mmHg 73%
05:00 +29°C° 0 mm 6 mps 761 mmHg 74%
06:00 +29°C° 0 mm 6 mps 761 mmHg 74%
07:00 +29°C° 0 mm 5 mps 762 mmHg 74%
08:00 +29°C° 0 mm 5 mps 762 mmHg 74%
09:00 +29°C° 0 mm 5 mps 762 mmHg 73%
10:00 +29°C° 0 mm 5 mps 763 mmHg 73%
11:00 +29°C° 0 mm 4 mps 762 mmHg 71%
12:00 +30°C° 0 mm 3 mps 762 mmHg 69%
13:00 +30°C° 0 mm 2 mps 762 mmHg 67%
14:00 +30°C° 0.2 mm 2 mps 761 mmHg 66%
15:00 +30°C° 0.2 mm 1 mps 761 mmHg 65%
16:00 +30°C° 0.2 mm 1 mps 760 mmHg 64%
17:00 +30°C° 0.2 mm 2 mps 761 mmHg 67%
18:00 +30°C° 0.2 mm 4 mps 761 mmHg 69%
19:00 +29°C° 0.2 mm 5 mps 761 mmHg 71%
20:00 +29°C° 0.6 mm 6 mps 761 mmHg 71%
21:00 +30°C° 0.6 mm 6 mps 762 mmHg 71%
22:00 +30°C° 0.6 mm 7 mps 762 mmHg 71%
23:00 +29°C° 0.1 mm 7 mps 762 mmHg 73%

Tomorrow, 16 May, Sunday

Time Temperature Precipitation Wind Pressure Humidity
00:00 +29°C° 0.1 mm 8 mps 761 mmHg 74%
01:00 +29°C° 0.1 mm 8 mps 761 mmHg 76%
02:00 +29°C° 0.1 mm 8 mps 761 mmHg 76%
03:00 +29°C° 0.1 mm 8 mps 761 mmHg 76%
04:00 +29°C° 0.1 mm 8 mps 760 mmHg 76%
05:00 +29°C° 0.1 mm 8 mps 761 mmHg 76%
06:00 +29°C° 0.1 mm 7 mps 761 mmHg 75%
07:00 +29°C° 0.1 mm 6 mps 762 mmHg 75%
08:00 +29°C° 0.3 mm 6 mps 762 mmHg 75%
09:00 +29°C° 0.3 mm 6 mps 762 mmHg 75%
10:00 +29°C° 0.3 mm 6 mps 763 mmHg 75%
11:00 +29°C° 0.2 mm 5 mps 762 mmHg 74%
12:00 +29°C° 0.2 mm 5 mps 762 mmHg 74%
13:00 +29°C° 0.2 mm 5 mps 762 mmHg 73%
14:00 +29°C° 0.7 mm 4 mps 761 mmHg 72%
15:00 +29°C° 0.7 mm 4 mps 761 mmHg 71%
16:00 +29°C° 0.7 mm 3 mps 761 mmHg 70%
17:00 +30°C° 0.2 mm 3 mps 761 mmHg 68%
18:00 +30°C° 0.2 mm 4 mps 761 mmHg 67%
19:00 +30°C° 0.2 mm 4 mps 761 mmHg 66%
20:00 +30°C° 0.5 mm 5 mps 761 mmHg 68%
21:00 +30°C° 0.5 mm 7 mps 762 mmHg 70%
22:00 +31°C° 0.5 mm 8 mps 762 mmHg 72%
23:00 +29°C° 0.5 mm 8 mps 762 mmHg 74%

Day after tomorrow, 17 May, Monday

Time Temperature Precipitation Wind Pressure Humidity
00:00 +29°C° 0.5 mm 8 mps 761 mmHg 76%
01:00 +29°C° 0.5 mm 8 mps 761 mmHg 78%
02:00 +29°C° 0.3 mm 7 mps 761 mmHg 77%
03:00 +29°C° 0.3 mm 6 mps 760 mmHg 76%
04:00 +29°C° 0.3 mm 6 mps 760 mmHg 76%
05:00 +29°C° 0.4 mm 6 mps 761 mmHg 75%
06:00 +29°C° 0.4 mm 6 mps 761 mmHg 75%
07:00 +29°C° 0.4 mm 6 mps 761 mmHg 75%
08:00 +29°C° 0.3 mm 6 mps 761 mmHg 76%
09:00 +29°C° 0.3 mm 6 mps 762 mmHg 76%
10:00 +29°C° 0.3 mm 6 mps 762 mmHg 76%
11:00 +29°C° 0.4 mm 6 mps 761 mmHg 75%
12:00 +29°C° 0.4 mm 5 mps 761 mmHg 74%
13:00 +29°C° 0.4 mm 5 mps 761 mmHg 73%
14:00 +29°C° 1 mm 4 mps 761 mmHg 71%
15:00 +30°C° 1 mm 4 mps 760 mmHg 70%
16:00 +30°C° 1 mm 4 mps 760 mmHg 68%
17:00 +30°C° 0.2 mm 4 mps 760 mmHg 68%
18:00 +30°C° 0.2 mm 3 mps 760 mmHg 67%
19:00 +30°C° 0.2 mm 3 mps 760 mmHg 66%
20:00 +30°C° 0.2 mm 4 mps 761 mmHg 67%
21:00 +30°C° 0.2 mm 4 mps 761 mmHg 68%
22:00 +30°C° 0.2 mm 5 mps 761 mmHg 68%
23:00 +30°C° 0 mm 5 mps 761 mmHg 70%

18 May, Tuesday

Time Temperature Precipitation Wind Pressure Humidity
00:00 +30°C° 0 mm 5 mps 761 mmHg 71%
01:00 +30°C° 0 mm 5 mps 760 mmHg 72%
02:00 +29°C° 0.4 mm 5 mps 760 mmHg 73%
03:00 +29°C° 0.4 mm 5 mps 760 mmHg 73%
04:00 +29°C° 0.4 mm 5 mps 760 mmHg 73%
05:00 +29°C° 0.3 mm 5 mps 760 mmHg 73%
06:00 +29°C° 0.3 mm 5 mps 760 mmHg 73%
07:00 +29°C° 0.3 mm 4 mps 761 mmHg 72%
08:00 +30°C° 0.1 mm 4 mps 761 mmHg 71%
09:00 +30°C° 0.1 mm 4 mps 761 mmHg 70%
10:00 +30°C° 0.1 mm 4 mps 761 mmHg 69%
11:00 +30°C° 0.1 mm 4 mps 761 mmHg 69%
12:00 +30°C° 0.1 mm 5 mps 761 mmHg 70%
13:00 +30°C° 0.1 mm 5 mps 760 mmHg 70%
14:00 +30°C° 0.4 mm 4 mps 760 mmHg 70%
15:00 +30°C° 0.4 mm 4 mps 760 mmHg 71%
16:00 +30°C° 0.4 mm 4 mps 759 mmHg 71%
17:00 +30°C° 0.3 mm 3 mps 759 mmHg 71%
18:00 +30°C° 0.3 mm 3 mps 760 mmHg 71%
19:00 +30°C° 0.3 mm 3 mps 760 mmHg 72%
20:00 +30°C° 0.9 mm 3 mps 760 mmHg 71%
21:00 +30°C° 0.9 mm 4 mps 760 mmHg 71%
22:00 +30°C° 0.9 mm 4 mps 760 mmHg 71%
23:00 +30°C° 0.4 mm 4 mps 760 mmHg 70%

19 May, Wednesday

Time Temperature Precipitation Wind Pressure Humidity
00:00 +30°C° 0.4 mm 4 mps 760 mmHg 69%
01:00 +30°C° 0.4 mm 5 mps 760 mmHg 69%
02:00 +30°C° 1.1 mm 5 mps 760 mmHg 70%
03:00 +30°C° 1.1 mm 5 mps 760 mmHg 71%
04:00 +29°C° 1.1 mm 5 mps 760 mmHg 72%
05:00 +30°C° 1.4 mm 5 mps 760 mmHg 71%
06:00 +30°C° 1.4 mm 4 mps 760 mmHg 70%
07:00 +30°C° 1.4 mm 4 mps 760 mmHg 69%
08:00 +30°C° 0.9 mm 4 mps 761 mmHg 70%
09:00 +30°C° 0.9 mm 5 mps 761 mmHg 70%
10:00 +30°C° 0.9 mm 5 mps 761 mmHg 70%
11:00 +30°C° 0.4 mm 6 mps 761 mmHg 71%
12:00 +30°C° 0.4 mm 6 mps 761 mmHg 72%
13:00 +30°C° 0.4 mm 7 mps 760 mmHg 73%
14:00 +30°C° 0 mm 7 mps 760 mmHg 73%
15:00 +30°C° 0 mm 7 mps 759 mmHg 74%
16:00 +29°C° 0 mm 7 mps 759 mmHg 75%
17:00 +29°C° 0.9 mm 7 mps 759 mmHg 74%
18:00 +29°C° 0.9 mm 6 mps 760 mmHg 74%
19:00 +29°C° 0.9 mm 6 mps 760 mmHg 73%
20:00 +29°C° 1 mm 7 mps 760 mmHg 75%
21:00 +29°C° 1 mm 9 mps 760 mmHg 76%
22:00 +28°C° 1 mm 10 mps 761 mmHg 77%
23:00 +28°C° 0.2 mm 9 mps 760 mmHg 76%

20 May, Thursday

Time Temperature Precipitation Wind Pressure Humidity
00:00 +28°C° 0.2 mm 8 mps 760 mmHg 75%
01:00 +29°C° 0.2 mm 7 mps 760 mmHg 74%
02:00 +29°C° 0.8 mm 6 mps 760 mmHg 74%
03:00 +29°C° 0.8 mm 5 mps 760 mmHg 73%
04:00 +29°C° 0.8 mm 5 mps 759 mmHg 73%
05:00 +29°C° 1.1 mm 5 mps 760 mmHg 73%
06:00 +29°C° 1.1 mm 5 mps 760 mmHg 73%
07:00 +29°C° 1.1 mm 5 mps 760 mmHg 73%
08:00 +29°C° 1.5 mm 5 mps 760 mmHg 72%
09:00 +29°C° 1.5 mm 4 mps 760 mmHg 72%
10:00 +29°C° 1.5 mm 4 mps 760 mmHg 72%
11:00 +29°C° 1.7 mm 4 mps 760 mmHg 74%
12:00 +28°C° 1.7 mm 4 mps 760 mmHg 76%
13:00 +28°C° 1.7 mm 4 mps 760 mmHg 79%
14:00 +28°C° 1.1 mm 4 mps 760 mmHg 77%
15:00 +29°C° 1.1 mm 3 mps 759 mmHg 75%
16:00 +29°C° 1.1 mm 3 mps 759 mmHg 73%
17:00 +29°C° 0.5 mm 3 mps 759 mmHg 73%
18:00 +29°C° 0.5 mm 3 mps 759 mmHg 73%
19:00 +29°C° 0.5 mm 3 mps 759 mmHg 73%
20:00 +30°C° 0.4 mm 3 mps 759 mmHg 73%
21:00 +30°C° 0.4 mm 3 mps 759 mmHg 72%
22:00 +30°C° 0.4 mm 4 mps 760 mmHg 72%
23:00 +30°C° 0.1 mm 4 mps 759 mmHg 72%
Show more

We Need Your Consent

Meteoprog and our Service Providers may store and access personal data such as cookies, device identifiers or other similar technologies on your device and process such data to personalise content and ads, as well as provide social media features and to analyse the traffic.

  • Store and/or access information on your device

    Cookies, device identifiers or other information can be stored or accessed on your device for the purposes indicated above.

  • Personalised ads and content, ad and content measurement, audience insights, and products development

    Ads and content can be personalised based on a profile. More data can be added to better personalise ads and content. Ad and content performance can be measured. Insights about the audience who saw the ads and content can be derived. Such data can be used to develop or improve user’s experience, systems and software.

By clicking ‘I Agree’ you will allow the use of indicated cookies, device identifiers, web beacons or other similar technologies. Your settings can be changed in the browser on your device.

For certain purposes, legitimate interests may be relied on, rather than consent. You can read more about this in our Privacy and Cookie Policy.